| time (UTC) | temp F | wind direction | speed MPH | gust MPH | rain 1hr in | rain 24hr in | rain mn in | humidity % | barometer mb |
| 20260906093117 | 58 | 124 | 0.0 | 0.0 | 0.00 | 0.00 | 0.00 | 86 | 1013.2 |
| 20260906091508 | 58 | 125 | 0.0 | 0.0 | 0.00 | 0.00 | 0.00 | 86 | 1013.1 |
| 20260906084546 | 58 | 124 | 0.0 | 0.0 | 0.00 | 0.00 | 0.00 | 85 | 1013.1 |
| 20260906083044 | 58 | 136 | 0.0 | 0.0 | 0.00 | 0.00 | 0.00 | 86 | 1013.2 |
| 20260906081517 | 58 | 137 | 0.0 | 0.0 | 0.00 | 0.00 | 0.00 | 86 | 1013.1 |
| 20260906080006 | 58 | 137 | 0.0 | 0.0 | 0.00 | 0.00 | 0.00 | 86 | 1013.1 |
| 20260906074556 | 59 | 137 | 0.0 | 0.0 | 0.00 | 0.00 | 0.00 | 85 | 1013.1 |
| 20260906073035 | 59 | 137 | 0.0 | 0.0 | 0.00 | 0.00 | 0.00 | 85 | 1013.3 |
| 20260906071513 | 59 | 137 | 0.0 | 0.0 | 0.00 | 0.00 | 0.00 | 84 | 1013.2 |
| 20260906064551 | 59 | 137 | 0.0 | 0.0 | 0.00 | 0.00 | 0.00 | 83 | 1013.2 |
| 20260906063034 | 59 | 137 | 0.0 | 0.0 | 0.00 | 0.00 | 0.00 | 83 | 1013.2 |
| 20260906061519 | 59 | 137 | 0.0 | 0.0 | 0.00 | 0.00 | 0.00 | 82 | 1013.2 |
| 20260906060108 | 59 | 122 | 0.0 | 0.0 | 0.00 | 0.00 | 0.00 | 83 | 1013.4 |
| 20260906054602 | 59 | 122 | 0.0 | 1.0 | 0.00 | 0.00 | 0.00 | 83 | 1013.3 |
| 20260906053030 | 59 | 110 | 0.0 | 0.0 | 0.00 | 0.00 | 0.00 | 83 | 1013.4 |
| 20260906051517 | 59 | 360 | 0.0 | 0.0 | 0.00 | 0.00 | 0.00 | 81 | 1013.5 |
| 20260906050005 | 59 | 356 | 0.0 | 1.0 | 0.00 | 0.00 | 0.00 | 82 | 1013.5 |
| 20260906044602 | 60 | 338 | 0.0 | 0.0 | 0.00 | 0.00 | 0.00 | 81 | 1013.5 |
| 20260906043035 | 60 | 338 | 0.0 | 0.0 | 0.00 | 0.00 | 0.00 | 80 | 1013.6 |
| 20260906041520 | 61 | 338 | 0.0 | 0.0 | 0.00 | 0.00 | 0.00 | 79 | 1013.6 |
| 20260906040016 | 61 | 338 | 0.0 | 0.0 | 0.00 | 0.00 | 0.00 | 78 | 1013.7 |
| 20260906034537 | 62 | 338 | 0.0 | 0.0 | 0.00 | 0.00 | 0.00 | 77 | 1013.6 |
| 20260906033037 | 63 | 338 | 0.0 | 0.0 | 0.00 | 0.00 | 0.00 | 74 | 1013.3 |
| 20260906031512 | 64 | 338 | 0.0 | 0.0 | 0.00 | 0.00 | 0.00 | 72 | 1013.2 |
| 20260906030008 | 65 | 338 | 0.0 | 0.0 | 0.00 | 0.00 | 0.00 | 69 | 1013.0 |
| 20260906024556 | 66 | 338 | 0.0 | 0.0 | 0.00 | 0.00 | 0.00 | 66 | 1013.0 |
| 20260906023034 | 68 | 338 | 0.0 | 1.0 | 0.00 | 0.00 | 0.00 | 64 | 1013.0 |
| 20260906021520 | 68 | 23 | 0.0 | 2.0 | 0.00 | 0.00 | 0.00 | 62 | 1013.0 |
| 20260906020003 | 68 | 353 | 0.0 | 2.0 | 0.00 | 0.00 | 0.00 | 62 | 1013.2 |
| 20260906014633 | 69 | 311 | 0.0 | 2.0 | 0.00 | 0.00 | 0.00 | 60 | 1013.2 |
| 20260906013047 | 69 | 309 | 1.0 | 4.0 | 0.00 | 0.00 | 0.00 | 60 | 1013.2 |
| 20260906011528 | 69 | 52 | 0.0 | 3.0 | 0.00 | 0.00 | 0.00 | 58 | 1013.1 |
| 20260906010017 | 70 | 131 | 0.0 | 5.0 | 0.00 | 0.00 | 0.00 | 58 | 1013.1 |
| 20260906004529 | 70 | 307 | 0.0 | 3.0 | 0.00 | 0.00 | 0.00 | 55 | 1013.2 |
| 20260906003015 | 70 | 269 | 0.0 | 2.0 | 0.00 | 0.00 | 0.00 | 55 | 1013.2 |
| 20260906001505 | 70 | 302 | 2.0 | 3.0 | 0.00 | 0.00 | 0.00 | 54 | 1013.2 |
| 20260906000057 | 70 | 310 | 0.0 | 4.0 | 0.00 | 0.00 | 0.00 | 55 | 1013.2 |
| 20260905234544 | 70 | 48 | 1.0 | 5.0 | 0.00 | 0.00 | 0.00 | 54 | 1013.3 |
| 20260905233034 | 70 | 54 | 0.0 | 2.0 | 0.00 | 0.00 | 0.00 | 56 | 1013.3 |
| 20260905231520 | 70 | 326 | 0.0 | 3.0 | 0.00 | 0.00 | 0.00 | 58 | 1013.5 |
| 20260905230110 | 69 | 311 | 2.0 | 4.0 | 0.00 | 0.00 | 0.00 | 56 | 1013.6 |
| 20260905224548 | 70 | 283 | 1.0 | 4.0 | 0.00 | 0.01 | 0.00 | 57 | 1013.6 |
| 20260905223033 | 70 | 301 | 3.0 | 6.0 | 0.00 | 0.01 | 0.00 | 56 | 1013.7 |
| 20260905221512 | 69 | 295 | 0.0 | 2.0 | 0.00 | 0.01 | 0.00 | 59 | 1013.8 |
| 20260905220013 | 70 | 266 | 0.0 | 2.0 | 0.00 | 0.01 | 0.00 | 59 | 1013.9 |
| 20260905214602 | 70 | 280 | 0.0 | 3.0 | 0.00 | 0.01 | 0.00 | 58 | 1013.9 |
| 20260905213057 | 69 | 206 | 0.0 | 4.0 | 0.00 | 0.01 | 0.00 | 60 | 1014.0 |
| 20260905211537 | 69 | 269 | 0.0 | 3.0 | 0.00 | 0.01 | 0.00 | 60 | 1014.0 |
| 20260905210013 | 68 | 278 | 0.0 | 3.0 | 0.00 | 0.01 | 0.00 | 62 | 1014.2 |
| 20260905204603 | 68 | 43 | 0.0 | 4.0 | 0.00 | 0.01 | 0.00 | 65 | 1014.4 |
| 20260905203045 | 67 | 288 | 0.0 | 2.0 | 0.00 | 0.01 | 0.00 | 66 | 1014.4 |
| 20260905201525 | 66 | 1 | 3.0 | 6.0 | 0.00 | 0.01 | 0.00 | 67 | 1014.4 |
| 20260905200017 | 65 | 283 | 0.0 | 4.0 | 0.00 | 0.01 | 0.00 | 69 | 1014.4 |
| 20260905194600 | 65 | 264 | 0.0 | 6.0 | 0.00 | 0.01 | 0.00 | 69 | 1014.6 |
| 20260905193056 | 65 | 295 | 1.0 | 4.0 | 0.00 | 0.01 | 0.00 | 69 | 1014.8 |
| 20260905191534 | 64 | 285 | 1.0 | 5.0 | 0.00 | 0.01 | 0.00 | 73 | 1014.9 |
| 20260905190108 | 63 | 274 | 0.0 | 5.0 | 0.00 | 0.01 | 0.00 | 75 | 1015.1 |
| 20260905184553 | 63 | 295 | 1.0 | 5.0 | 0.00 | 0.01 | 0.00 | 75 | 1015.2 |
| 20260905183030 | 62 | 3 | 0.0 | 4.0 | 0.00 | 0.01 | 0.00 | 79 | 1015.4 |
| 20260905181513 | 62 | 274 | 0.0 | 4.0 | 0.00 | 0.01 | 0.00 | 79 | 1015.5 |
| 20260905180058 | 61 | 359 | 0.0 | 2.0 | 0.00 | 0.01 | 0.00 | 82 | 1015.5 |
| 20260905174535 | 60 | 6 | 0.0 | 3.0 | 0.00 | 0.01 | 0.00 | 83 | 1015.5 |
| 20260905173019 | 60 | 300 | 0.0 | 3.0 | 0.00 | 0.01 | 0.00 | 84 | 1015.5 |
| 20260905171502 | 59 | 127 | 0.0 | 1.0 | 0.00 | 0.01 | 0.00 | 86 | 1015.5 |
| 20260905170054 | 59 | 58 | 0.0 | 2.0 | 0.00 | 0.01 | 0.00 | 86 | 1015.6 |
| 20260905164533 | 59 | 61 | 0.0 | 2.0 | 0.00 | 0.01 | 0.00 | 85 | 1015.6 |
| 20260905163019 | 59 | 58 | 0.0 | 1.0 | 0.00 | 0.01 | 0.00 | 86 | 1015.6 |
| 20260905161529 | 58 | 129 | 0.0 | 2.0 | 0.00 | 0.01 | 0.00 | 87 | 1015.6 |
| 20260905160013 | 57 | 134 | 0.0 | 2.0 | 0.00 | 0.01 | 0.00 | 89 | 1015.7 |
| 20260905154619 | 56 | 124 | 0.0 | 1.0 | 0.00 | 0.01 | 0.00 | 90 | 1015.7 |
| 20260905153048 | 55 | 75 | 0.0 | 1.0 | 0.00 | 0.01 | 0.00 | 93 | 1015.7 |
| 20260905151532 | 54 | 113 | 0.0 | 0.0 | 0.00 | 0.01 | 0.00 | 95 | 1015.8 |
| 20260905150016 | 53 | 128 | 0.0 | 0.0 | 0.00 | 0.01 | 0.00 | 95 | 1015.8 |
| 20260905144502 | 52 | 128 | 0.0 | 0.0 | 0.00 | 0.01 | 0.00 | 94 | 1015.7 |
| 20260905143052 | 52 | 128 | 0.0 | 0.0 | 0.00 | 0.01 | 0.00 | 94 | 1015.6 |
| 20260905141539 | 52 | 128 | 0.0 | 0.0 | 0.00 | 0.01 | 0.00 | 94 | 1015.5 |
| 20260905140024 | 52 | 128 | 0.0 | 0.0 | 0.00 | 0.01 | 0.00 | 94 | 1015.6 |
| 20260905134538 | 52 | 128 | 0.0 | 0.0 | 0.00 | 0.01 | 0.00 | 94 | 1015.4 |
| 20260905133020 | 52 | 128 | 0.0 | 0.0 | 0.00 | 0.01 | 0.00 | 94 | 1015.4 |
| 20260905131507 | 52 | 128 | 0.0 | 0.0 | 0.00 | 0.01 | 0.00 | 93 | 1015.3 |
| 20260905130058 | 53 | 128 | 0.0 | 0.0 | 0.00 | 0.01 | 0.00 | 93 | 1015.1 |
| 20260905124505 | 53 | 128 | 0.0 | 0.0 | 0.00 | 0.02 | 0.00 | 93 | 1015.0 |
| 20260905123057 | 53 | 128 | 0.0 | 0.0 | 0.00 | 0.02 | 0.00 | 93 | 1015.2 |
| 20260905121538 | 53 | 128 | 0.0 | 0.0 | 0.00 | 0.02 | 0.00 | 93 | 1015.0 |
| 20260905120027 | 53 | 128 | 0.0 | 0.0 | 0.00 | 0.02 | 0.00 | 94 | 1015.0 |
| 20260905114510 | 53 | 128 | 0.0 | 0.0 | 0.00 | 0.02 | 0.00 | 94 | 1015.0 |
| 20260905113102 | 53 | 128 | 0.0 | 0.0 | 0.00 | 0.02 | 0.00 | 94 | 1015.0 |
| 20260905111536 | 53 | 97 | 0.0 | 0.0 | 0.00 | 0.02 | 0.00 | 94 | 1015.0 |
| 20260905110015 | 53 | 97 | 0.0 | 0.0 | 0.00 | 0.02 | 0.00 | 94 | 1014.9 |
| 20260905104502 | 53 | 99 | 0.0 | 0.0 | 0.00 | 0.02 | 0.00 | 94 | 1014.9 |
| 20260905103058 | 53 | 99 | 0.0 | 0.0 | 0.00 | 0.02 | 0.00 | 94 | 1015.0 |
| 20260905101543 | 53 | 99 | 0.0 | 0.0 | 0.00 | 0.02 | 0.00 | 93 | 1015.0 |
| 20260905100034 | 53 | 99 | 0.0 | 0.0 | 0.00 | 0.02 | 0.00 | 93 | 1014.9 |
| 20260905094513 | 54 | 99 | 0.0 | 0.0 | 0.00 | 0.02 | 0.00 | 93 | 1014.8 |